Weather History for Fort Knox, KY

Change the Weather History Date:

Saturday, March 22, 2014

  Actual Average Record
Temperature  
Mean Temperature 50 °F -  
Max Temperature 57 °F 56 °F 81 °F (2012)
Min Temperature 42 °F 35 °F 18 °F (2013)
Degree Days  
Heating Degree Days 14    
Moisture  
Dew Point 31 °F    
Average Humidity 49    
Maximum Humidity 66    
Minimum Humidity 34    
Precipitation  
Precipitation 0.00 in - - ()
Sea Level Pressure  
Sea Level Pressure 30.05 in    
Wind  
Wind Speed 9 mph (NW)    
Max Wind Speed 13 mph    
Max Gust Speed -    
Visibility 10 miles    
Events      
Averages and records for this station are not official NWS values.
T = Trace of Precipitation, MM = Missing Value Source: NWS Daily Summary

Daily Weather History Graph

Daily Weather History Graph

Search for Another Location

Airport:

Trip Planner

Search our weather history database for the weather conditions in past years. The results will help you decide how hot, cold, wet, or windy it might be!

Date:

Astronomy

Mar. 22, 2014 Rise Set
Actual Time 7:44 AM EDT 7:57 PM EDT
Civil Twilight 7:18 AM EDT 8:23 PM EDT
Nautical Twilight 6:47 AM EDT 8:54 PM EDT
Astronomical Twilight 6:16 AM EDT 9:25 PM EDT
Moon 1:11 AM EDT (3/22) 11:32 AM EDT (3/22)
Length of Visible Light 13h 05m
Length of Day
12h 13m
Waning Gibbous, 65% of the Moon is Illuminated
Mar 22
Waning Gibbous
Mar 23
Last Quarter
Mar 30
New
Apr 7
First Quarter
Apr 15
Full

Hourly Weather History & Observations

Time (EDT) Temp. Windchill Dew Point Humidity Pressure Visibility Wind Dir Wind Speed Gust Speed Precip Events Conditions
12:58 AM 55.2 °F - 29.7 °F 38% 29.88 in 10.0 mi South 11.5 mph - N/A   Clear
1:58 AM 54.7 °F - 30.6 °F 40% 29.88 in 10.0 mi South 10.4 mph - N/A   Clear
2:58 AM 52.3 °F - 31.1 °F 44% 29.88 in 10.0 mi SSW 10.4 mph - N/A   Clear
3:58 AM 49.1 °F - 31.3 °F 50% 29.91 in 10.0 mi West 8.1 mph - N/A   Partly Cloudy
4:58 AM 50.4 °F - 34.2 °F 54% 29.94 in 10.0 mi WNW 6.9 mph - N/A   Clear
5:58 AM 49.8 °F - 32.2 °F 51% 29.96 in 10.0 mi NW 9.2 mph - N/A   Partly Cloudy
6:58 AM 47.3 °F - 31.5 °F 54% 29.99 in 10.0 mi NW 3.5 mph - N/A   Clear
7:58 AM 44.8 °F 41.0 °F 32.2 °F 61% 30.02 in 10.0 mi NW 6.9 mph - N/A   Clear
8:58 AM 47.5 °F - 34.7 °F 61% 30.06 in 10.0 mi NW 9.2 mph - N/A   Mostly Cloudy
9:58 AM 46.2 °F 40.5 °F 35.4 °F 66% 30.08 in 10.0 mi NW 12.7 mph - N/A   Mostly Cloudy
10:58 AM 45.3 °F 40.6 °F 31.8 °F 59% 30.10 in 10.0 mi NW 9.2 mph - N/A   Mostly Cloudy
11:58 AM 47.7 °F - 30.4 °F 51% 30.12 in 10.0 mi NNW 6.9 mph - N/A   Mostly Cloudy
12:58 PM 49.5 °F - 30.0 °F 47% 30.13 in 10.0 mi NW 5.8 mph - N/A   Scattered Clouds
1:58 PM 53.8 °F - 30.6 °F 41% 30.11 in 10.0 mi NW 10.4 mph - N/A   Scattered Clouds
2:58 PM 54.7 °F - 29.1 °F 38% 30.09 in 10.0 mi Variable 5.8 mph - N/A   Clear
3:58 PM 56.7 °F - 29.1 °F 35% 30.08 in 10.0 mi NNW 10.4 mph - N/A   Clear
4:58 PM 57.4 °F - 30.6 °F 36% 30.07 in 10.0 mi NNW 8.1 mph - N/A   Clear
5:58 PM 57.4 °F - 29.1 °F 34% 30.07 in 10.0 mi NNW 11.5 mph - N/A   Clear
6:58 PM 55.6 °F - 29.7 °F 37% 30.09 in 10.0 mi North 11.5 mph - N/A   Clear
7:58 PM 51.1 °F - 29.8 °F 44% 30.11 in 10.0 mi NNW 5.8 mph - N/A   Clear
8:58 PM 46.6 °F - 28.9 °F 50% 30.12 in 10.0 mi WNW 5.8 mph - N/A   Clear
9:58 PM 46.0 °F 41.0 °F 31.8 °F 58% 30.14 in 10.0 mi North 10.4 mph - N/A   Clear
10:58 PM 44.2 °F 39.2 °F 31.1 °F 60% 30.17 in 10.0 mi North 9.2 mph - N/A   Clear
11:58 PM 42.1 °F 37.1 °F 29.8 °F 62% 30.17 in 10.0 mi North 8.1 mph - N/A   Clear